Погода в Теплом Ключе

Россия / Республика Саха (Якутия)     62°46′59″N   136°48′36″E
темп.,
°C
ветер,
м/с
пор.,
м/с
влажн.,
%
обл.,
%
осадки,
мм/ч
давл.,
гПа
погр.,
м
5 декабря, вс
вс500:00−35в3376100 0.0 100838
03:00−29в2373100 0.0 1004100
06:00−26в1272100 0.0 100279
09:00−25вюв0080100 0.0 100111
12:00−23ю1296100 0.1 1001117
15:00−24ююв11100100 0.3 10029
18:00−22юв1299100 0.3 100273
21:00−20вюв1299100 0.8 100268
6 декабря, пн
пн600:00−20ююв1199100 0.5 100231
03:00−20ю3498100 0.9 100481
06:00−20ю3599100 0.4 1005159
09:00−22юз34100100 0.8 1007111
12:00−23юз4698100 0.4 1009362
15:00−24ююз3699100 0.8 1012244
18:00−26ююз22100100 0.2 101519
21:00−28вюв22100100 0.3 101510
7 декабря, вт
вт700:00−27ю2299100 0.1 101522
03:00−29юз21100100 0.2 101610
06:00−30ююз11100100 0.1 10169
09:00−31ююв11100100 0.3 10179
12:00−29ююз2398100 0.1 1016148
15:00−31ююз11100100 0.1 10179
18:00−33юв00100100 0.1 10189
21:00−34юв1199100 0.1 10209
8 декабря, ср
ср800:00−36юв1199100 0.1 10239
03:00−40юв2299100 0.1 10268
06:00−42вюв3298100 0.0 10289
09:00−44вюв339612 0.0 103010
12:00−41в22905 0.0 103011
15:00−42в33855 0.0 102911
18:00−42в33825 0.0 102811
21:00−41в337979 0.0 102610
9 декабря, чт
чт900:00−37всв3373100 0.0 102222
03:00−30всв3470100 0.0 101895
06:00−26в1263100 0.0 101683
09:00−24юв1299100 0.2 101686
12:00−22ююз1298100 0.4 1017137
15:00−22ююз11100100 0.9 101812
18:00−21ююв1299100 0.4 101964
21:00−21ююз3699100 0.9 1021300